Time,TemperatureF,DewpointF,PressureIn,WindDirection,WindDirectionDegrees,WindSpeedMPH,WindSpeedGustMPH,Humidity,HourlyPrecipIn,Conditions,Clouds,dailyrainin,SoftwareType,DateUTC
2013-03-10 00:02:00,48.0,33.0,-100.00,SE,140,0.0,1.0,55,-99.99,,,-99.99,,2013-03-10 05:02:00,
2013-03-10 00:11:00,48.0,33.0,-100.00,SSW,200,0.0,0.0,57,-99.99,,,-99.99,,2013-03-10 05:11:00,
2013-03-10 00:22:00,48.0,33.0,-100.00,ESE,115,0.0,1.0,56,-99.99,,,-99.99,,2013-03-10 05:22:00,
2013-03-10 00:32:00,47.0,33.0,-100.00,ESE,115,0.0,0.0,58,-99.99,,,-99.99,,2013-03-10 05:32:00,
2013-03-10 00:42:00,47.0,34.0,-100.00,ESE,115,0.0,0.0,60,-99.99,,,-99.99,,2013-03-10 05:42:00,
2013-03-10 00:52:00,47.0,34.0,-100.00,NNW,330,0.0,1.0,60,-99.99,,,-99.99,,2013-03-10 05:52:00,
2013-03-10 01:02:00,46.0,34.0,-100.00,ESE,105,0.0,1.0,61,-99.99,,,-99.99,,2013-03-10 06:02:00,
2013-03-10 01:11:00,46.0,34.0,-100.00,NNE,25,1.0,1.0,61,-99.99,,,-99.99,,2013-03-10 06:11:00,
2013-03-10 01:22:00,46.0,33.0,-100.00,ENE,75,0.0,1.0,60,-99.99,,,-99.99,,2013-03-10 06:22:00,
2013-03-10 01:32:00,47.0,34.0,-100.00,NE,50,0.0,2.0,59,-99.99,,,-99.99,,2013-03-10 06:32:00,
2013-03-10 01:42:00,47.0,33.0,-100.00,ENE,75,1.0,3.0,59,-99.99,,,-99.99,,2013-03-10 06:42:00,
2013-03-10 01:52:00,46.0,33.0,-100.00,NNE,15,0.0,1.0,60,-99.99,,,-99.99,,2013-03-10 06:52:00,
2013-03-10 03:02:00,46.0,34.0,-100.00,NE,50,0.0,1.0,62,-99.99,,,-99.99,,2013-03-10 07:02:00,
2013-03-10 03:11:00,45.0,34.0,-100.00,SE,135,0.0,1.0,64,-99.99,,,-99.99,,2013-03-10 07:11:00,
2013-03-10 03:21:00,45.0,33.0,-100.00,NNE,30,0.0,1.0,63,-99.99,,,-99.99,,2013-03-10 07:21:00,
2013-03-10 03:32:00,45.0,34.0,-100.00,East,85,1.0,1.0,64,-99.99,,,-99.99,,2013-03-10 07:32:00,
2013-03-10 03:42:00,44.0,34.0,-100.00,ENE,60,1.0,1.0,67,-99.99,,,-99.99,,2013-03-10 07:42:00,
2013-03-10 03:52:00,44.0,34.0,-100.00,North,355,0.0,2.0,68,-99.99,,,-99.99,,2013-03-10 07:52:00,
2013-03-10 04:02:00,44.0,34.0,-100.00,NW,310,1.0,1.0,69,-99.99,,,-99.99,,2013-03-10 08:02:00,
2013-03-10 04:11:00,44.0,35.0,-100.00,NW,310,0.0,1.0,71,-99.99,,,-99.99,,2013-03-10 08:11:00,
2013-03-10 04:21:00,43.0,35.0,-100.00,NW,310,0.0,0.0,73,-99.99,,,-99.99,,2013-03-10 08:21:00,
2013-03-10 04:32:00,43.0,35.0,-100.00,NW,310,0.0,0.0,74,-99.99,,,-99.99,,2013-03-10 08:32:00,
2013-03-10 04:42:00,43.0,36.0,-100.00,NW,310,0.0,0.0,76,-99.99,,,-99.99,,2013-03-10 08:42:00,
2013-03-10 04:51:00,43.0,36.0,-100.00,NW,310,0.0,0.0,76,-99.99,,,-99.99,,2013-03-10 08:51:00,
2013-03-10 05:02:00,42.0,36.0,-100.00,NW,310,0.0,0.0,77,-99.99,,,-99.99,,2013-03-10 09:02:00,
2013-03-10 05:11:00,42.0,36.0,-100.00,West,275,1.0,1.0,78,-99.99,,,-99.99,,2013-03-10 09:11:00,
2013-03-10 05:21:00,42.0,36.0,-100.00,West,275,0.0,0.0,79,-99.99,,,-99.99,,2013-03-10 09:21:00,
2013-03-10 05:32:00,42.0,37.0,-100.00,WSW,250,0.0,1.0,80,-99.99,,,-99.99,,2013-03-10 09:32:00,
2013-03-10 05:41:00,43.0,37.0,-100.00,East,90,1.0,2.0,80,-99.99,,,-99.99,,2013-03-10 09:41:00,
2013-03-10 05:51:00,43.0,36.0,-100.00,ENE,70,1.0,4.0,76,-99.99,,,-99.99,,2013-03-10 09:51:00,
2013-03-10 06:02:00,44.0,36.0,-100.00,East,80,1.0,4.0,73,-99.99,,,-99.99,,2013-03-10 10:02:00,
2013-03-10 06:11:00,44.0,35.0,-100.00,East,80,1.0,2.0,70,-99.99,,,-99.99,,2013-03-10 10:11:00,
2013-03-10 06:21:00,45.0,35.0,-100.00,ENE,65,2.0,5.0,68,-99.99,,,-99.99,,2013-03-10 10:21:00,
2013-03-10 06:32:00,45.0,34.0,-100.00,East,80,4.0,6.0,66,-99.99,,,-99.99,,2013-03-10 10:32:00,
2013-03-10 06:42:00,45.0,34.0,-100.00,ENE,75,3.0,5.0,65,-99.99,,,-99.99,,2013-03-10 10:42:00,
2013-03-10 06:52:00,46.0,34.0,-100.00,ENE,70,2.0,5.0,64,-99.99,,,-99.99,,2013-03-10 10:52:00,
2013-03-10 07:02:00,46.0,34.0,-100.00,ENE,75,3.0,5.0,63,-99.99,,,-99.99,,2013-03-10 11:02:00,
2013-03-10 07:12:00,46.0,34.0,-100.00,East,80,4.0,6.0,63,-99.99,,,-99.99,,2013-03-10 11:12:00,
2013-03-10 07:21:00,46.0,34.0,-100.00,East,85,4.0,6.0,63,-99.99,,,-99.99,,2013-03-10 11:21:00,
2013-03-10 07:32:00,46.0,34.0,-100.00,SE,140,1.0,4.0,63,-99.99,,,-99.99,,2013-03-10 11:32:00,
2013-03-10 07:42:00,46.0,35.0,-100.00,North,10,0.0,1.0,66,-99.99,,,-99.99,,2013-03-10 11:42:00,
2013-03-10 07:52:00,46.0,36.0,-100.00,South,170,0.0,1.0,68,-99.99,,,-99.99,,2013-03-10 11:52:00,
2013-03-10 08:02:00,45.0,35.0,-100.00,South,170,0.0,0.0,67,-99.99,,,-99.99,,2013-03-10 12:02:00,
2013-03-10 08:11:00,45.0,36.0,-100.00,WSW,240,0.0,1.0,69,-99.99,,,-99.99,,2013-03-10 12:11:00,
2013-03-10 08:21:00,45.0,35.0,-100.00,West,260,1.0,1.0,69,-99.99,,,-99.99,,2013-03-10 12:21:00,
2013-03-10 08:32:00,44.0,36.0,-100.00,WNW,285,0.0,1.0,71,-99.99,,,-99.99,,2013-03-10 12:32:00,
2013-03-10 08:42:00,44.0,35.0,-100.00,WNW,285,1.0,1.0,71,-99.99,,,-99.99,,2013-03-10 12:42:00,
2013-03-10 08:51:00,44.0,35.0,-100.00,WNW,285,0.0,1.0,70,-99.99,,,-99.99,,2013-03-10 12:51:00,
2013-03-10 09:01:00,45.0,36.0,-100.00,East,85,0.0,2.0,70,-99.99,,,-99.99,,2013-03-10 13:01:00,
2013-03-10 09:11:00,45.0,36.0,-100.00,SE,125,1.0,3.0,69,-99.99,,,-99.99,,2013-03-10 13:11:00,
2013-03-10 09:21:00,46.0,36.0,-100.00,North,5,0.0,2.0,68,-99.99,,,-99.99,,2013-03-10 13:21:00,
2013-03-10 09:32:00,47.0,36.0,-100.00,NNE,30,0.0,2.0,66,-99.99,,,-99.99,,2013-03-10 13:32:00,
2013-03-10 09:42:00,48.0,37.0,-100.00,North,350,0.0,4.0,64,-99.99,,,-99.99,,2013-03-10 13:42:00,
2013-03-10 09:52:00,49.0,36.0,-100.00,East,100,1.0,3.0,60,-99.99,,,-99.99,,2013-03-10 13:52:00,
2013-03-10 10:02:00,50.0,35.0,-100.00,North,0,1.0,2.0,58,-99.99,,,-99.99,,2013-03-10 14:02:00,
2013-03-10 10:11:00,50.0,36.0,-100.00,SE,130,0.0,1.0,58,-99.99,,,-99.99,,2013-03-10 14:11:00,
2013-03-10 10:22:00,51.0,36.0,-100.00,ESE,120,0.0,3.0,57,-99.99,,,-99.99,,2013-03-10 14:22:00,
2013-03-10 10:32:00,52.0,37.0,-100.00,SW,215,1.0,1.0,57,-99.99,,,-99.99,,2013-03-10 14:32:00,
2013-03-10 10:42:00,54.0,38.0,-100.00,West,260,0.0,1.0,55,-99.99,,,-99.99,,2013-03-10 14:42:00,
2013-03-10 10:51:00,56.0,38.0,-100.00,North,10,1.0,1.0,50,-99.99,,,-99.99,,2013-03-10 14:51:00,
2013-03-10 11:01:00,59.0,38.0,-100.00,West,265,2.0,4.0,46,-99.99,,,-99.99,,2013-03-10 15:01:00,
2013-03-10 11:11:00,59.0,38.0,-100.00,NW,305,1.0,6.0,45,-99.99,,,-99.99,,2013-03-10 15:11:00,
2013-03-10 11:21:00,59.0,37.0,-100.00,SW,235,4.0,7.0,44,-99.99,,,-99.99,,2013-03-10 15:21:00,
2013-03-10 11:32:00,60.0,38.0,-100.00,West,265,5.0,9.0,43,-99.99,,,-99.99,,2013-03-10 15:32:00,
2013-03-10 11:40:00,60.0,36.0,-100.00,SSE,165,2.0,8.0,40,-99.99,,,-99.99,,2013-03-10 15:40:00,
2013-03-10 11:42:00,61.0,38.0,-100.00,ESE,110,1.0,5.0,42,-99.99,,,-99.99,,2013-03-10 15:42:00,
2013-03-10 11:52:00,63.0,38.0,-100.00,WNW,295,4.0,6.0,40,-99.99,,,-99.99,,2013-03-10 15:52:00,
2013-03-10 12:02:00,62.0,38.0,-100.00,SSE,155,5.0,7.0,40,-99.99,,,-99.99,,2013-03-10 16:02:00,
2013-03-10 12:12:00,60.0,36.0,-100.00,SSE,165,2.0,8.0,40,-99.99,,,-99.99,,2013-03-10 16:12:00,
2013-03-10 12:21:00,60.0,36.0,-100.00,SSE,165,2.0,8.0,40,-99.99,,,-99.99,,2013-03-10 16:21:00,
2013-03-10 12:32:00,60.0,36.0,-100.00,SSE,165,2.0,8.0,40,-99.99,,,-99.99,,2013-03-10 16:32:00,
2013-03-10 13:52:00,65.0,38.0,-100.00,SSE,165,4.0,11.0,37,-99.99,,,-99.99,,2013-03-10 17:52:00,
2013-03-10 14:01:00,66.0,38.0,-100.00,WSW,255,5.0,10.0,36,-99.99,,,-99.99,,2013-03-10 18:01:00,
2013-03-10 14:12:00,67.0,39.0,-100.00,South,175,4.0,8.0,36,-99.99,,,-99.99,,2013-03-10 18:12:00,
2013-03-10 14:22:00,66.0,38.0,-100.00,SSW,205,5.0,14.0,35,-99.99,,,-99.99,,2013-03-10 18:22:00,
2013-03-10 14:32:00,66.0,38.0,-100.00,SSW,205,5.0,14.0,35,-99.99,,,-99.99,,2013-03-10 18:32:00,
2013-03-10 14:42:00,67.0,38.0,-100.00,SE,130,6.0,10.0,35,-99.99,,,-99.99,,2013-03-10 18:42:00,
2013-03-10 14:52:00,67.0,38.0,-100.00,SE,130,6.0,10.0,35,-99.99,,,-99.99,,2013-03-10 18:52:00,
2013-03-10 15:02:00,67.0,39.0,-100.00,SE,125,4.0,11.0,35,-99.99,,,-99.99,,2013-03-10 19:02:00,
2013-03-10 15:11:00,67.0,38.0,-100.00,SW,220,4.0,13.0,34,-99.99,,,-99.99,,2013-03-10 19:11:00,
2013-03-10 15:22:00,69.0,39.0,-100.00,WSW,245,2.0,8.0,34,-99.99,,,-99.99,,2013-03-10 19:22:00,
2013-03-10 15:32:00,67.0,37.0,-100.00,SE,145,5.0,11.0,33,-99.99,,,-99.99,,2013-03-10 19:32:00,
2013-03-10 15:42:00,67.0,37.0,-100.00,ESE,115,4.0,10.0,33,-99.99,,,-99.99,,2013-03-10 19:42:00,
2013-03-10 15:52:00,67.0,37.0,-100.00,SE,135,6.0,11.0,33,-99.99,,,-99.99,,2013-03-10 19:52:00,
2013-03-10 16:02:00,67.0,37.0,-100.00,SSW,205,4.0,12.0,33,-99.99,,,-99.99,,2013-03-10 20:02:00,
2013-03-10 16:12:00,67.0,37.0,-100.00,SW,215,4.0,9.0,33,-99.99,,,-99.99,,2013-03-10 20:12:00,
2013-03-10 16:22:00,66.0,37.0,-100.00,SE,140,2.0,7.0,34,-99.99,,,-99.99,,2013-03-10 20:22:00,
2013-03-10 16:32:00,67.0,37.0,-100.00,South,170,4.0,9.0,34,-99.99,,,-99.99,,2013-03-10 20:32:00,
2013-03-10 16:43:00,67.0,37.0,-100.00,SSE,160,4.0,9.0,34,-99.99,,,-99.99,,2013-03-10 20:43:00,
2013-03-10 16:52:00,66.0,38.0,-100.00,South,175,5.0,9.0,35,-99.99,,,-99.99,,2013-03-10 20:52:00,
2013-03-10 17:02:00,67.0,38.0,-100.00,ESE,115,2.0,7.0,35,-99.99,,,-99.99,,2013-03-10 21:02:00,
2013-03-10 17:12:00,67.0,38.0,-100.00,SSW,200,4.0,9.0,35,-99.99,,,-99.99,,2013-03-10 21:12:00,
2013-03-10 17:23:00,67.0,38.0,-100.00,SE,130,2.0,10.0,35,-99.99,,,-99.99,,2013-03-10 21:23:00,
2013-03-10 17:32:00,67.0,39.0,-100.00,SSW,205,4.0,11.0,35,-99.99,,,-99.99,,2013-03-10 21:32:00,
2013-03-10 17:42:00,67.0,38.0,-100.00,South,180,6.0,13.0,35,-99.99,,,-99.99,,2013-03-10 21:42:00,
2013-03-10 17:52:00,66.0,38.0,-100.00,SSW,195,4.0,11.0,35,-99.99,,,-99.99,,2013-03-10 21:52:00,
2013-03-10 18:03:00,67.0,37.0,-100.00,SSW,195,6.0,11.0,34,-99.99,,,-99.99,,2013-03-10 22:03:00,
2013-03-10 18:12:00,66.0,37.0,-100.00,South,170,3.0,11.0,34,-99.99,,,-99.99,,2013-03-10 22:12:00,
2013-03-10 18:22:00,66.0,37.0,-100.00,SE,135,4.0,8.0,35,-99.99,,,-99.99,,2013-03-10 22:22:00,
2013-03-10 18:32:00,65.0,37.0,-100.00,SW,230,4.0,8.0,35,-99.99,,,-99.99,,2013-03-10 22:32:00,
2013-03-10 18:43:00,65.0,37.0,-100.00,South,185,3.0,10.0,35,-99.99,,,-99.99,,2013-03-10 22:43:00,
2013-03-10 18:52:00,65.0,37.0,-100.00,SE,135,3.0,7.0,35,-99.99,,,-99.99,,2013-03-10 22:52:00,
2013-03-10 19:03:00,65.0,37.0,-100.00,SE,135,2.0,6.0,35,-99.99,,,-99.99,,2013-03-10 23:03:00,
2013-03-10 19:12:00,65.0,37.0,-100.00,South,180,6.0,9.0,35,-99.99,,,-99.99,,2013-03-10 23:12:00,
2013-03-10 19:23:00,65.0,36.0,-100.00,South,175,6.0,9.0,35,-99.99,,,-99.99,,2013-03-10 23:23:00,
2013-03-10 19:33:00,65.0,36.0,-100.00,South,185,4.0,9.0,35,-99.99,,,-99.99,,2013-03-10 23:33:00,
2013-03-10 19:42:00,64.0,37.0,-100.00,SE,130,2.0,6.0,36,-99.99,,,-99.99,,2013-03-10 23:42:00,
2013-03-10 19:52:00,63.0,36.0,-100.00,SE,140,2.0,5.0,36,-99.99,,,-99.99,,2013-03-10 23:52:00,
2013-03-10 20:03:00,63.0,36.0,-100.00,SSE,155,2.0,4.0,36,-99.99,,,-99.99,,2013-03-11 00:03:00,
2013-03-10 20:13:00,62.0,36.0,-100.00,SE,145,1.0,4.0,37,-99.99,,,-99.99,,2013-03-11 00:13:00,
2013-03-10 20:23:00,62.0,35.0,-100.00,SSE,165,1.0,4.0,37,-99.99,,,-99.99,,2013-03-11 00:23:00,
2013-03-10 20:33:00,61.0,35.0,-100.00,South,175,1.0,3.0,38,-99.99,,,-99.99,,2013-03-11 00:33:00,
2013-03-10 20:43:00,61.0,35.0,-100.00,SE,145,2.0,4.0,38,-99.99,,,-99.99,,2013-03-11 00:43:00,
2013-03-10 20:52:00,61.0,35.0,-100.00,SE,135,2.0,5.0,38,-99.99,,,-99.99,,2013-03-11 00:52:00,
2013-03-10 21:03:00,60.0,35.0,-100.00,East,85,1.0,5.0,39,-99.99,,,-99.99,,2013-03-11 01:03:00,
2013-03-10 21:13:00,60.0,36.0,-100.00,East,85,1.0,4.0,40,-99.99,,,-99.99,,2013-03-11 01:13:00,
2013-03-10 21:23:00,60.0,36.0,-100.00,ESE,120,2.0,5.0,40,-99.99,,,-99.99,,2013-03-11 01:23:00,
2013-03-10 21:32:00,60.0,36.0,-100.00,East,90,1.0,6.0,40,-99.99,,,-99.99,,2013-03-11 01:32:00,
2013-03-10 21:43:00,60.0,36.0,-100.00,East,90,1.0,4.0,41,-99.99,,,-99.99,,2013-03-11 01:43:00,
2013-03-10 21:53:00,60.0,36.0,-100.00,East,90,1.0,4.0,41,-99.99,,,-99.99,,2013-03-11 01:53:00,
2013-03-10 22:03:00,59.0,36.0,-100.00,SE,135,2.0,4.0,42,-99.99,,,-99.99,,2013-03-11 02:03:00,
2013-03-10 22:12:00,59.0,36.0,-100.00,SSE,155,2.0,5.0,42,-99.99,,,-99.99,,2013-03-11 02:12:00,
2013-03-10 22:23:00,59.0,36.0,-100.00,ESE,115,1.0,4.0,42,-99.99,,,-99.99,,2013-03-11 02:23:00,
2013-03-10 22:32:00,58.0,36.0,-100.00,East,100,1.0,2.0,43,-99.99,,,-99.99,,2013-03-11 02:32:00,
2013-03-10 22:42:00,58.0,36.0,-100.00,East,100,1.0,3.0,43,-99.99,,,-99.99,,2013-03-11 02:42:00,
2013-03-10 22:52:00,58.0,36.0,-100.00,East,100,1.0,3.0,43,-99.99,,,-99.99,,2013-03-11 02:52:00,
2013-03-10 23:02:00,58.0,36.0,-100.00,East,80,1.0,6.0,44,-99.99,,,-99.99,,2013-03-11 03:02:00,
2013-03-10 23:12:00,58.0,36.0,-100.00,SE,145,3.0,6.0,44,-99.99,,,-99.99,,2013-03-11 03:12:00,
2013-03-10 23:22:00,58.0,36.0,-100.00,SE,130,2.0,6.0,44,-99.99,,,-99.99,,2013-03-11 03:22:00,
2013-03-10 23:32:00,57.0,36.0,-100.00,ESE,115,1.0,8.0,45,-99.99,,,-99.99,,2013-03-11 03:32:00,
2013-03-10 23:42:00,57.0,36.0,-100.00,SE,145,4.0,7.0,45,-99.99,,,-99.99,,2013-03-11 03:42:00,
2013-03-10 23:52:00,57.0,36.0,-100.00,ESE,120,3.0,9.0,45,-99.99,,,-99.99,,2013-03-11 03:52:00,